Language Language

English English español español

E Recruit E Recruit

870 Results

ID Position Type
351961 Temp Assonet MA Wed Jan 09 10:29:06 GMT 2019
351876 Temp Austin TX Wed Jan 09 10:04:53 GMT 2019
351952 Direct Hire Clay MI Wed Jan 09 08:59:06 GMT 2019
351604 Temp Kennebunk ME Wed Jan 09 07:48:50 GMT 2019
351590 Temp Round Rock TX Tue Jan 08 19:55:44 GMT 2019
351935 Temp Belle Chasse LA Tue Jan 08 19:30:00 GMT 2019
351885 Temp Houston TX Tue Jan 08 19:22:26 GMT 2019
351934 Temp Borger TX Tue Jan 08 19:12:33 GMT 2019
351933 Temp Westlake LA Tue Jan 08 19:01:40 GMT 2019
351931 Direct Hire Houston TX Tue Jan 08 18:36:26 GMT 2019
351782 Temp Round Rock TX Tue Jan 08 18:03:50 GMT 2019
351760 Temp San Francisco CA Tue Jan 08 17:45:07 GMT 2019
351895 Temp Saint Paul MN Tue Jan 08 17:38:23 GMT 2019
349980 Temp Charlotte NC Tue Jan 08 17:34:05 GMT 2019
351902 Temp Charlotte NC Tue Jan 08 17:34:05 GMT 2019
351696 Temp San Francisco CA Tue Jan 08 16:43:43 GMT 2019
351863 Temp Charlotte NC Tue Jan 08 16:41:25 GMT 2019
351861 Temp Minneapolis MN Tue Jan 08 14:15:21 GMT 2019
351853 Temp Winston-Salem NC Tue Jan 08 13:35:46 GMT 2019
351792 Temp Woburn MA Tue Jan 08 12:50:05 GMT 2019
344766 Temp Charlotte NC Tue Jan 08 12:34:23 GMT 2019
351702 Temp Sterling Heights MI Tue Jan 08 11:30:28 GMT 2019
351815 Temp Corning NY Tue Jan 08 11:29:52 GMT 2019
351750 Temp Winston Salem NC Tue Jan 08 10:52:33 GMT 2019
351634 Temp Charlotte NC Tue Jan 08 10:18:32 GMT 2019
351783 Temp Addison NY Tue Jan 08 10:11:44 GMT 2019
350891 Temp Charlotte NC Tue Jan 08 10:02:45 GMT 2019
351712 Temp Corning NY Tue Jan 08 09:59:07 GMT 2019
351504 Temp Naugatuck CT Tue Jan 08 09:53:04 GMT 2019
351740 Temp Wilmington NC Tue Jan 08 09:46:32 GMT 2019
351650 Temp Harrodsburg KY Tue Jan 08 09:06:53 GMT 2019
351723 Temp Charlotte NC Mon Jan 07 18:06:08 GMT 2019
351546 Temp Corning NY Mon Jan 07 17:41:07 GMT 2019
351722 Temp Shoreview MN Mon Jan 07 17:17:42 GMT 2019
351639 Temp Southborough MA Mon Jan 07 16:53:16 GMT 2019
350586 Temp Chicago IL Mon Jan 07 16:24:44 GMT 2019
351472 Temp Charlotte NC Mon Jan 07 15:25:38 GMT 2019
351706 Temp Sterling Heights MI Mon Jan 07 14:23:42 GMT 2019
351669 Temp Charlotte NC Mon Jan 07 14:20:19 GMT 2019
351610 Temp Oklahoma City OK Mon Jan 07 14:12:59 GMT 2019
351700 Temp Sterling Heights MI Mon Jan 07 14:04:06 GMT 2019
351698 Temp Sterling Heights MI Mon Jan 07 14:02:35 GMT 2019
351667 Temp Mountain View CA Mon Jan 07 13:39:33 GMT 2019
351617 Temp Charlotte NC Mon Jan 07 13:33:04 GMT 2019
349637 Temp Charlotte NC Mon Jan 07 12:41:33 GMT 2019
330934 Temp Minneapolis MI Mon Jan 07 12:39:03 GMT 2019
351216 Temp to Hire Fitchburg MA Mon Jan 07 11:44:09 GMT 2019
351613 Temp Charlotte NC Mon Jan 07 11:21:04 GMT 2019
347574 Temp Woburn MA Mon Jan 07 11:15:53 GMT 2019
343130 Direct Hire Devens MA Mon Jan 07 10:58:27 GMT 2019
351651 Temp Dearborn MI Mon Jan 07 10:44:11 GMT 2019
351637 Temp Killeen TX Mon Jan 07 10:29:37 GMT 2019
351628 Temp Dearborn MI Mon Jan 07 10:08:23 GMT 2019
351251 Temp Charlotte NC Mon Jan 07 10:00:46 GMT 2019
350334 Temp North Brunswick NJ Mon Jan 07 09:15:18 GMT 2019
348101 Direct Hire Adrian MI Mon Jan 07 09:07:02 GMT 2019
348333 Direct Hire Mon Jan 07 09:06:09 GMT 2019
351377 Direct Hire Houston TX Mon Jan 07 09:02:15 GMT 2019
338907 Direct Hire Rochester Hills MI Mon Jan 07 09:01:20 GMT 2019
342335 Direct Hire Rochester Hills MI Mon Jan 07 08:58:03 GMT 2019
350101 Direct Hire Connersville IN Mon Jan 07 08:56:26 GMT 2019
351376 Direct Hire Houston TX Mon Jan 07 08:52:41 GMT 2019
351614 Direct Hire Connersville IN Mon Jan 07 08:50:07 GMT 2019
351611 Direct Hire Connersville IN Mon Jan 07 08:41:22 GMT 2019
351466 Temp Windsor CT Mon Jan 07 08:37:38 GMT 2019
341383 Temp Broomfield CO Sun Jan 06 11:50:41 GMT 2019
340115 Temp Concord CA Sun Jan 06 08:20:22 GMT 2019
346201 Temp Charlotte NC Sun Jan 06 08:16:40 GMT 2019
351587 Temp Round Rock TX Sat Jan 05 16:41:28 GMT 2019
351588 Temp Round Rock TX Sat Jan 05 16:33:33 GMT 2019
351589 Temp Round Rock TX Sat Jan 05 16:18:48 GMT 2019
351591 Temp Round Rock TX Sat Jan 05 16:00:50 GMT 2019
351594 Temp Round Rock TX Sat Jan 05 15:56:42 GMT 2019
351595 Temp Round Rock TX Sat Jan 05 15:49:37 GMT 2019
351596 Temp Round Rock TX Sat Jan 05 15:43:20 GMT 2019